星链-1138 (STARLINK-1138 )

导读

STARLINK-1138是美国SpaceX星链星座的卫星,于**2020年2月17日**发射入轨,属于星链计划低轨卫星组网批次,旨在为全球提供高速宽带互联网服务。作为Starlink组网的重要组成部分,它运行在近地轨道,依托密集星座布局实现全球覆盖,支撑星链服务的连续性与稳定性部署。

基本信息
目录编号:
45178
目录名称:
STARLINK-1138
国际标识:
2020-012A
轨道中心:
EARTH
卫星名称:
星链-1138
卫星全名:
星链-1138 (STARLINK-1138 )
卫星状态:
已陨落 最后检测时间 2025-01-24
发射日期:
2020-02-17 UTC
国别 :
美国 (US)
星等 :
--
该卫星已列入 空间交会检测服务 Space Conjunction Data Service (SCDS) ,当前飞行风险评估等级: 无高风险
轨道信息
数据来源 国际轨道数据
星历时间: 2025-01-24T17:50:01+0800
轨道信息已过期597天
半长轴: 6523.362km
偏心率: 0.0003757
轨道倾角: 53.029°
近地点辐角 214.946°
升交点赤经 49.513°
平近点角 243.387°
近地点: 142.776km
远地点: 147.678km
周期: 87.391分钟
每日圈数: 16.477661
详细信息
固有亮度:
5
最大亮度:
2.5
卫星平台:
Starlink V1.0
覆盖范围:
全球
运营商:
太空探索技术公司
运营商所在国:
美国
制造商(研发单位):
太空探索技术公司
制造商所在国:
美国
使用方式:
暂无
卫星简介
星链(Starlink)计划是由太空探索技术公司(SpaceX)提出的一个巨型低轨卫星互联网星座项目,计划在2019年至2024年间在太空搭建由约1.2万颗卫星组成的“星链”网络,其中1584颗将部署在地球上空550千米处的近地轨道,并从2020年开始工作。该卫星仍在工作。
与全量物体交会距离演化趋势
与全量物体交会风险概率演化趋势